This demonstration page uses our WeatherBlox Daily Observations layout. Learn more.

Hourly Observations for November 29, 2016

Temp ( °F °C ) Dew Point ( °F °C ) Humidity (%) Winds ( mph kmh ) Pressure ( in mb ) Visibility ( mi km ) Precip ( " mm )
12:15 am 00:15 Cloudy 48 9 37 3 66 66 undefined N/A 30.03 1017 10 16.09344 0 0
12:35 am 00:35 Cloudy 48 9 37 3 66 66 undefined N/A 30.03 1017 10 16.09344 0 0
12:55 am 00:55 Cloudy 48 9 37 3 66 66 undefined N/A 30.03 1017 10 16.09344 0 0
1:15 am 01:15 Cloudy 48 9 37 3 66 66 undefined N/A 30.06 1018 10 16.09344 0 0
1:35 am 01:35 Cloudy 48 9 39 4 71 71 undefined N/A 30.06 1018 10 16.09344 0 0
1:55 am 01:55 Cloudy 48 9 39 4 71 71 undefined N/A 30.06 1018 10 16.09344 0 0
2:15 am 02:15 Cloudy 48 9 39 4 71 71 undefined N/A 30.03 1017 10 16.09344 0 0
2:35 am 02:35 Cloudy 48 9 39 4 71 71 undefined N/A 30.03 1017 10 16.09344 0 0
2:55 am 02:55 Cloudy with Light Rain 46 8 41 5 82 82 undefined N/A 30 1016 7 11.265408 0 0
3:15 am 03:15 Cloudy with Drizzle 46 8 43 6 87 87 undefined N/A 30.03 1017 10 16.09344 0 0
3:35 am 03:35 Cloudy 46 8 45 7 93 93 undefined N/A 30 1016 10 16.09344 0 0
3:55 am 03:55 Cloudy 46 8 43 6 87 87 undefined N/A 29.97 1015 10 16.09344 0 0
4:15 am 04:15 Cloudy 46 8 45 7 93 93 undefined N/A 29.97 1015 10 16.09344 0 0
4:35 am 04:35 Cloudy 46 8 45 7 93 93 undefined N/A 29.97 1015 10 16.09344 0 0
4:55 am 04:55 Cloudy with Light Drizzle 46 8 45 7 93 93 undefined N/A 29.97 1015 10 16.09344 0 0
5:15 am 05:15 Cloudy 46 8 45 7 93 93 undefined N/A 29.97 1015 10 16.09344 0 0
5:35 am 05:35 Cloudy with Light Rain 46 8 45 7 93 93 undefined N/A 29.97 1015 10 16.09344 0 0
5:55 am 05:55 Cloudy 46 8 45 7 93 93 undefined N/A 29.97 1015 10 16.09344 0 0
6:15 am 06:15 Cloudy with Drizzle 46 8 46 8 100 100 undefined N/A 29.97 1015 7 11.265408 0 0
6:35 am 06:35 Cloudy with Light Drizzle 46 8 46 8 100 100 undefined N/A 29.97 1015 4 6.437376 0.01 0.254
6:55 am 06:55 Cloudy with Light Rain 46 8 46 8 100 100 undefined N/A 29.94 1014 5 8.04672 0.01 0.254
7:15 am 07:15 Cloudy with Light Drizzle 46 8 46 8 100 100 undefined N/A 29.94 1014 5 8.04672 0.01 0.254
7:35 am 07:35 Cloudy with Light Drizzle 46 8 46 8 100 100 undefined N/A 29.94 1014 4 6.437376 0.01 0.254
7:55 am 07:55 Cloudy with Light Rain 46 8 46 8 100 100 undefined N/A 29.94 1014 2 3.218688 0.01 0.254
8:15 am 08:15 Cloudy with Mist and Fog 46 8 46 8 100 100 undefined N/A 29.94 1014 4 6.437376 0 0
8:35 am 08:35 Cloudy with Light Rain 48 9 48 9 100 100 undefined N/A 29.91 1013 3 4.828032 0.01 0.254
8:55 am 08:55 Cloudy with Light Rain 48 9 48 9 100 100 undefined N/A 29.91 1013 2.5 4.02336 0.01 0.254
9:15 am 09:15 Cloudy with Light Rain 48 9 48 9 100 100 undefined N/A 29.91 1013 1.75 2.816352 0 0
9:35 am 09:35 Cloudy with Light Rain 48 9 48 9 100 100 undefined N/A 29.91 1013 1.75 2.816352 0.01 0.254
9:55 am 09:55 Cloudy with Rain 50 10 50 10 100 100 undefined N/A 29.91 1013 2.5 4.02336 0.02 0.508
10:15 am 10:15 Cloudy with Light Rain 50 10 50 10 100 100 undefined N/A 29.88 1012 2.5 4.02336 0 0
10:35 am 10:35 Cloudy with Light Rain 50 10 50 10 100 100 undefined N/A 29.88 1012 3 4.828032 0 0
10:55 am 10:55 Cloudy with Drizzle 50 10 50 10 100 100 undefined N/A 29.88 1012 1.5 2.414016 0.01 0.254
11:15 am 11:15 Cloudy with Rain 52 11 52 11 100 100 undefined N/A 29.88 1012 1.25 2.01168 0.01 0.254
11:35 am 11:35 Cloudy with Light Rain 52 11 52 11 100 100 NW 6 9 29.85 1011 2 3.218688 0.04 1.016
11:55 am 11:55 Cloudy with Heavy Rain 52 11 52 11 100 100 WNW 3 6 29.85 1011 1.5 2.414016 0.09 2.286
12:15 pm 12:15 Cloudy with Rain 52 11 52 11 100 100 S 3 6 29.83 1010 2.5 4.02336 0.04 1.016
12:35 pm 12:35 Cloudy with Light Rain 54 12 54 12 100 100 SSE 8 13 29.8 1009 4 6.437376 0.06 1.524
12:55 pm 12:55 Cloudy with Light Rain 55 13 55 13 100 100 SSE 12 19 29.8 1009 10 16.09344 0.07 1.778
1:15 pm 13:15 Cloudy 59 15 59 15 100 100 S 13 20 29.8 1009 10 16.09344 0 0
1:35 pm 13:35 Mostly Cloudy 59 15 59 15 100 100 SSW 5 7 29.8 1009 10 16.09344 0 0
1:55 pm 13:55 Cloudy 59 15 59 15 100 100 SSW 5 7 29.8 1009 10 16.09344 0 0
2:15 pm 14:15 Cloudy 59 15 59 15 100 100 SW 6 9 29.8 1009 10 16.09344 0 0
2:35 pm 14:35 Cloudy 59 15 59 15 100 100 WSW 3 6 29.8 1009 10 16.09344 0 0
2:55 pm 14:55 Cloudy 59 15 59 15 100 100 Calm 29.8 1009 10 16.09344 0 0
3:15 pm 15:15 Cloudy with Rain 59 15 59 15 100 100 Calm 29.83 1010 4 6.437376 0 0
3:35 pm 15:35 Cloudy with Light Drizzle 59 15 59 15 100 100 Calm 29.83 1010 4 6.437376 0 0
3:55 pm 15:55 Cloudy 59 15 59 15 100 100 Calm 29.83 1010 10 16.09344 0 0
4:15 pm 16:15 Cloudy with Mist and Fog 59 15 59 15 100 100 Calm 29.83 1010 5 8.04672 0 0
4:35 pm 16:35 Cloudy with Mist and Fog 59 15 59 15 100 100 ESE 3 6 29.83 1010 5 8.04672 0 0
5:15 pm 17:15 Cloudy with Mist and Fog 57 14 57 14 100 100 SSE 3 6 29.83 1010 5 8.04672 0 0
5:35 pm 17:35 Cloudy with Mist and Fog 57 14 57 14 100 100 SW 3 6 29.85 1011 5 8.04672 0 0
5:55 pm 17:55 Cloudy with Mist and Fog 57 14 57 14 100 100 Calm 29.85 1011 4 6.437376 0 0
6:15 pm 18:15 Cloudy with Mist and Fog 57 14 57 14 100 100 Calm 29.88 1012 5 8.04672 0 0
6:35 pm 18:35 Cloudy with Mist and Fog 57 14 57 14 100 100 Calm 29.88 1012 5 8.04672 0 0
6:55 pm 18:55 Cloudy with Mist and Fog 57 14 57 14 100 100 Calm 29.88 1012 3 4.828032 0 0
7:15 pm 19:15 Cloudy with Mist and Fog 57 14 57 14 100 100 Calm 29.88 1012 5 8.04672 0 0
7:35 pm 19:35 Cloudy with Mist and Fog 57 14 57 14 100 100 Calm 29.91 1013 4 6.437376 0 0
7:55 pm 19:55 Cloudy with Mist and Fog 57 14 57 14 100 100 SW 3 6 29.91 1013 5 8.04672 0 0
8:15 pm 20:15 Cloudy with Mist and Fog 57 14 57 14 100 100 WSW 3 6 29.91 1013 3 4.828032 0 0
8:35 pm 20:35 Cloudy with Mist and Fog 57 14 57 14 100 100 SW 3 6 29.91 1013 0.75 1.207008 0 0
8:55 pm 20:55 Cloudy with Fog 55 13 55 13 100 100 Calm 29.91 1013 0.5 0.804672 0 0
9:15 pm 21:15 Cloudy with Fog 55 13 55 13 100 100 Calm 29.91 1013 0.25 0.402336 0 0
9:35 pm 21:35 Cloudy with Fog 55 13 55 13 100 100 Calm 29.91 1013 0.25 0.402336 0 0
9:55 pm 21:55 Cloudy with Fog 55 13 55 13 100 100 Calm 29.91 1013 0.25 0.402336 0 0
10:15 pm 22:15 Cloudy with Fog 55 13 55 13 100 100 Calm 29.91 1013 0.25 0.402336 0 0
10:35 pm 22:35 Cloudy with Fog 55 13 55 13 100 100 Calm 29.91 1013 0.25 0.402336 0 0
10:55 pm 22:55 Cloudy with Fog 55 13 55 13 100 100 Calm 29.91 1013 0.25 0.402336 0 0
11:15 pm 23:15 Cloudy with Fog 55 13 55 13 100 100 Calm 29.91 1013 0.25 0.402336 0 0
11:35 pm 23:35 Cloudy with Fog 55 13 55 13 100 100 Calm 29.94 1014 0.25 0.402336 0 0
11:55 pm 23:55 Cloudy with Fog 55 13 55 13 100 100 Calm 29.91 1013 0.25 0.402336 0 0

Powered by AerisWeather